Change the Weather History Date:

Monday, March 25, 2013

  Actual Average Record
Temperature  
Mean Temperature 42 °F -  
Max Temperature 55 °F 73 °F 93 °F (2008)
Min Temperature 30 °F 41 °F 26 °F (1955)
Degree Days  
Heating Degree Days 23    
Moisture  
Dew Point 9 °F    
Average Humidity 26    
Maximum Humidity 41    
Minimum Humidity 17    
Precipitation  
Precipitation 0.00 in - - ()
Sea Level Pressure  
Sea Level Pressure 30.21 in    
Wind  
Wind Speed 9 mph (East)    
Max Wind Speed 14 mph    
Max Gust Speed 21 mph    
Visibility 10 miles    
Events      
Averages and records for this station are not official NWS values.
T = Trace of Precipitation, MM = Missing Value Source: NWS Daily Summary

Daily Weather History Graph

Daily Weather History Graph

Search for Another Location

Airport or City:

Trip Planner

Search our weather history database for the weather conditions in past years. The results will help you decide how hot, cold, wet, or windy it might be!

Date:

Astronomy

Mar. 25, 2013 Rise Set
Actual Time 7:49 AM CDT 8:07 PM CDT
Civil Twilight 7:25 AM CDT 8:32 PM CDT
Nautical Twilight 6:56 AM CDT 9:00 PM CDT
Astronomical Twilight 6:28 AM CDT 9:29 PM CDT
Moon 6:45 PM CDT (3/25) 6:29 AM CDT (3/25)
Length of Visible Light 13h 06m
Length of Day
12h 18m
Waxing Gibbous, 96% of the Moon is Illuminated
Mar 25
Waxing Gibbous
Mar 27
Full
Apr 2
Last Quarter
Apr 10
New
Apr 18
First Quarter

Hourly Weather History & Observations

Time (CDT) Temp. Windchill Dew Point Humidity Pressure Visibility Wind Dir Wind Speed Gust Speed Precip Events Conditions
12:53 AM 39.9 °F 33.4 °F 7.0 °F 26% 30.06 in 10.0 mi East 10.4 mph - N/A   Clear
1:53 AM 39.0 °F 33.4 °F 6.1 °F 26% 30.08 in 10.0 mi East 8.1 mph - N/A   Clear
2:53 AM 39.0 °F 31.4 °F 8.1 °F 28% 30.09 in 10.0 mi East 12.7 mph - N/A   Clear
3:53 AM 37.0 °F 29.8 °F 8.1 °F 30% 30.12 in 10.0 mi ENE 10.4 mph - N/A   Clear
4:53 AM 35.1 °F 27.4 °F 7.0 °F 31% 30.15 in 10.0 mi ENE 10.4 mph - N/A   Clear
5:53 AM 33.1 °F 23.4 °F 7.0 °F 34% 30.17 in 10.0 mi ENE 13.8 mph 19.6 mph N/A   Clear
6:53 AM 32.0 °F 23.6 °F 8.1 °F 37% 30.21 in 10.0 mi ENE 10.4 mph - N/A   Clear
7:53 AM 30.0 °F 24.1 °F 9.0 °F 41% 30.27 in 10.0 mi ENE 5.8 mph - N/A   Clear
8:53 AM 33.1 °F 26.9 °F 10.0 °F 38% 30.30 in 10.0 mi ENE 6.9 mph - N/A   Clear
9:53 AM 37.0 °F 29.8 °F 10.9 °F 34% 30.32 in 10.0 mi ESE 10.4 mph - N/A   Clear
10:53 AM 41.0 °F 35.2 °F 10.9 °F 29% 30.32 in 10.0 mi ESE 9.2 mph - N/A   Clear
11:53 AM 44.1 °F 38.1 °F 9.0 °F 24% 30.30 in 10.0 mi ESE 11.5 mph - N/A   Clear
12:53 PM 46.9 °F - 9.0 °F 21% 30.27 in 10.0 mi SE 8.1 mph 18.4 mph N/A   Clear
1:53 PM 48.9 °F - 10.0 °F 21% 30.25 in 10.0 mi ESE 8.1 mph 16.1 mph N/A   Clear
2:53 PM 50.0 °F - 10.0 °F 20% 30.22 in 10.0 mi ENE 6.9 mph 20.7 mph N/A   Clear
3:53 PM 51.1 °F - 10.9 °F 20% 30.19 in 10.0 mi South 4.6 mph - N/A   Clear
4:53 PM 54.0 °F - 10.0 °F 17% 30.17 in 10.0 mi East 9.2 mph - N/A   Clear
5:53 PM 54.0 °F - 10.0 °F 17% 30.16 in 10.0 mi ESE 9.2 mph - N/A   Clear
6:53 PM 54.0 °F - 10.0 °F 17% 30.17 in 10.0 mi SE 6.9 mph - N/A   Clear
7:53 PM 52.0 °F - 9.0 °F 18% 30.19 in 10.0 mi East 9.2 mph - N/A   Clear
8:53 PM 48.0 °F - 8.1 °F 20% 30.22 in 10.0 mi East 6.9 mph - N/A   Clear
9:53 PM 45.0 °F 40.6 °F 7.0 °F 21% 30.23 in 10.0 mi East 8.1 mph - N/A   Clear
10:53 PM 42.1 °F 37.1 °F 6.1 °F 23% 30.26 in 10.0 mi ENE 8.1 mph - N/A   Clear
11:53 PM 39.9 °F 34.5 °F 6.1 °F 25% 30.27 in 10.0 mi East 8.1 mph - N/A   Clear